,,PA_Meas_PMT16A,,PR_Meas_QMR101_102,,RH_Meas_QMH101,,SR_Meas_QMS101,,TA_Meas_QMH101,,GenWind,,GenWind,
time,status,PA,status,PR,status,RH,status,SR,status,TA,status,DirAvg,status,SpdAvg,
2013-10-25, 00:00:04,VALID,919.383,VALID,0,VALID,97.1757,VALID,0,VALID,19.5678,VALID,135,VALID,0,
2013-10-25, 00:01:04,VALID,919.375,VALID,0,VALID,97.2062,VALID,0,VALID,19.5468,VALID,135,VALID,0,
2013-10-25, 00:02:04,VALID,919.386,VALID,0,VALID,97.1757,VALID,0,VALID,19.5678,VALID,135,VALID,0,
2013-10-25, 00:03:04,VALID,919.374,VALID,0,VALID,97.2062,VALID,0,VALID,19.5468,VALID,135,VALID,0,
2013-10-25, 00:04:04,VALID,919.334,VALID,0,VALID,97.1909,VALID,0,VALID,19.5483,VALID,135,VALID,0,
2013-10-25, 00:05:04,VALID,919.334,VALID,0,VALID,97.1833,VALID,0,VALID,19.5678,VALID,135,VALID,0,
2013-10-25, 00:06:04,VALID,919.321,VALID,0,VALID,97.1833,VALID,0,VALID,19.5663,VALID,135,VALID,0,
2013-10-25, 00:07:04,VALID,919.279,VALID,0,VALID,97.2062,VALID,0,VALID,19.5288,VALID,135,VALID,0,
2013-10-25, 00:08:04,VALID,919.264,VALID,0,VALID,97.1986,VALID,0,VALID,19.4703,VALID,114,VALID,0,
2013-10-25, 00:09:04,VALID,919.237,VALID,0,VALID,97.2214,VALID,0,VALID,19.3908,VALID,85,VALID,0,
2013-10-25, 00:10:04,VALID,919.231,VALID,0,VALID,97.229,VALID,0,VALID,19.3518,VALID,85,VALID,0,
2013-10-25, 00:11:04,VALID,919.21,VALID,0,VALID,97.229,VALID,0,VALID,19.3128,VALID,85,VALID,0,
2013-10-25, 00:12:04,VALID,919.197,VALID,0,VALID,97.2214,VALID,0,VALID,19.2933,VALID,85,VALID,0,
2013-10-25, 00:13:04,VALID,919.153,VALID,0,VALID,97.2214,VALID,0,VALID,19.2933,VALID,85,VALID,0,
2013-10-25, 00:14:04,VALID,919.098,VALID,0,VALID,97.2138,VALID,0,VALID,19.2948,VALID,85,VALID,0,
2013-10-25, 00:15:04,VALID,919.072,VALID,0,VALID,97.2062,VALID,0,VALID,19.2933,VALID,85,VALID,0,
2013-10-25, 00:16:04,VALID,919.055,VALID,0,VALID,97.2214,VALID,0,VALID,19.3338,VALID,43,VALID,0,
2013-10-25, 00:17:04,VALID,918.981,VALID,0,VALID,97.229,VALID,0,VALID,19.3518,VALID,41,VALID,0,
2013-10-25, 00:18:04,VALID,919.008,VALID,0,VALID,97.2367,VALID,0,VALID,19.3908,VALID,40,VALID,0,
2013-10-25, 00:19:04,VALID,918.98,VALID,0,VALID,97.2214,VALID,0,VALID,19.4118,VALID,40,VALID,0,
2013-10-25, 00:20:04,VALID,918.966,VALID,0,VALID,97.2367,VALID,0.107441,VALID,19.4088,VALID,41,VALID,0,
2013-10-25, 00:21:04,VALID,918.966,VALID,0,VALID,97.2367,VALID,0.107441,VALID,19.4088,VALID,41,VALID,0,
2013-10-25, 00:22:04,VALID,918.971,VALID,0,VALID,97.2138,VALID,0.107441,VALID,19.4493,VALID,39,VALID,0,
2013-10-25, 00:23:04,VALID,918.997,VALID,0,VALID,97.2138,VALID,0,VALID,19.4688,VALID,31,VALID,0,
2013-10-25, 00:24:04,VALID,919.011,VALID,0,VALID,97.2443,VALID,0,VALID,19.4478,VALID,31,VALID,0,
2013-10-25, 00:25:04,VALID,918.983,VALID,0,VALID,97.2214,VALID,0.107441,VALID,19.4883,VALID,31,VALID,0,
2013-10-25, 00:26:04,VALID,918.971,VALID,0,VALID,97.2214,VALID,0.107441,VALID,19.4688,VALID,31,VALID,0,
2013-10-25, 00:27:04,VALID,918.945,VALID,0,VALID,97.2214,VALID,0.107441,VALID,19.4478,VALID,31,VALID,0,
2013-10-25, 00:28:04,VALID,918.938,VALID,0,VALID,97.2138,VALID,0.107441,VALID,19.4478,VALID,31,VALID,0,
2013-10-25, 00:29:04,VALID,918.899,VALID,0,VALID,97.2138,VALID,0.214882,VALID,19.4673,VALID,31,VALID,0,
2013-10-25, 00:30:04,VALID,918.891,VALID,0,VALID,97.2443,VALID,0.107441,VALID,19.4283,VALID,36,VALID,0,
2013-10-25, 00:31:04,VALID,918.864,VALID,0,VALID,97.2443,VALID,0.107441,VALID,19.4103,VALID,88,VALID,0,
2013-10-25, 00:32:04,VALID,918.823,VALID,0,VALID,97.2367,VALID,0.107441,VALID,19.3893,VALID,109,VALID,0,
2013-10-25, 00:33:04,VALID,918.825,VALID,0,VALID,97.2443,VALID,0.107441,VALID,19.3908,VALID,107,VALID,0,
2013-10-25, 00:34:04,VALID,918.806,VALID,0,VALID,97.2519,VALID,0.107441,VALID,19.3698,VALID,99,VALID,0,
2013-10-25, 00:35:04,VALID,918.835,VALID,0,VALID,97.2595,VALID,0,VALID,19.3323,VALID,99,VALID,0,
2013-10-25, 00:36:04,VALID,918.824,VALID,0,VALID,97.2519,VALID,0,VALID,19.3728,VALID,98,VALID,0,
2013-10-25, 00:37:04,VALID,918.841,VALID,0,VALID,97.2519,VALID,0,VALID,19.3533,VALID,143,VALID,0,
2013-10-25, 00:38:04,VALID,918.818,VALID,0,VALID,97.2443,VALID,0,VALID,19.3518,VALID,165,VALID,0,
2013-10-25, 00:39:04,VALID,918.84,VALID,0,VALID,97.2367,VALID,0,VALID,19.3713,VALID,165,VALID,0,
2013-10-25, 00:40:04,VALID,918.834,VALID,0,VALID,97.2367,VALID,0,VALID,19.4313,VALID,164,VALID,0,
2013-10-25, 00:41:04,VALID,918.817,VALID,0,VALID,97.2595,VALID,0,VALID,19.3908,VALID,164,VALID,0,
2013-10-25, 00:42:04,VALID,918.766,VALID,0,VALID,97.2443,VALID,0,VALID,19.3533,VALID,164,VALID,0,
2013-10-25, 00:43:04,VALID,918.722,VALID,0,VALID,97.2519,VALID,0,VALID,19.3728,VALID,163,VALID,0,
2013-10-25, 00:44:04,VALID,918.741,VALID,0,VALID,97.2443,VALID,0,VALID,19.3518,VALID,163,VALID,0,
2013-10-25, 00:45:04,VALID,918.692,VALID,0,VALID,97.2443,VALID,0,VALID,19.3518,VALID,163,VALID,0,
2013-10-25, 00:46:04,VALID,918.693,VALID,0,VALID,97.2443,VALID,0,VALID,19.3923,VALID,163,VALID,0,
2013-10-25, 00:47:04,VALID,918.669,VALID,0,VALID,97.2824,VALID,0,VALID,19.3518,VALID,163,VALID,0,
2013-10-25, 00:48:04,VALID,918.646,VALID,0,VALID,97.2519,VALID,0,VALID,19.3923,VALID,163,VALID,0,
2013-10-25, 00:49:04,VALID,918.591,VALID,0,VALID,97.2519,VALID,0,VALID,19.3713,VALID,163,VALID,0,
2013-10-25, 00:50:04,VALID,918.579,VALID,0,VALID,97.2595,VALID,0,VALID,19.3923,VALID,163,VALID,0,
2013-10-25, 00:51:04,VALID,918.562,VALID,0,VALID,97.2748,VALID,0,VALID,19.3923,VALID,163,VALID,0,
2013-10-25, 00:52:04,VALID,918.57,VALID,0,VALID,97.2595,VALID,0,VALID,19.3713,VALID,163,VALID,0,
2013-10-25, 00:53:04,VALID,918.549,VALID,0,VALID,97.2672,VALID,0,VALID,19.3923,VALID,163,VALID,0,
2013-10-25, 00:54:04,VALID,918.568,VALID,0,VALID,97.2672,VALID,0,VALID,19.3713,VALID,163,VALID,0,
2013-10-25, 00:55:04,VALID,918.561,VALID,0,VALID,97.2519,VALID,0,VALID,19.3533,VALID,163,VALID,0,
2013-10-25, 00:56:04,VALID,918.591,VALID,0,VALID,97.2672,VALID,0,VALID,19.3143,VALID,163,VALID,0,
2013-10-25, 00:57:04,VALID,918.573,VALID,0,VALID,97.2824,VALID,0,VALID,19.2543,VALID,84,VALID,0,
2013-10-25, 00:58:04,VALID,918.598,VALID,0,VALID,97.3053,VALID,0,VALID,19.2377,VALID,84,VALID,0,
2013-10-25, 00:59:04,VALID,918.558,VALID,0,VALID,97.29,VALID,0,VALID,19.2168,VALID,84,VALID,0,
2013-10-25, 01:00:04,VALID,918.581,VALID,0,VALID,97.2748,VALID,0,VALID,19.1973,VALID,84,VALID,0,
2013-10-25, 01:01:04,VALID,918.583,VALID,0,VALID,97.2672,VALID,0,VALID,19.1973,VALID,84,VALID,0,
2013-10-25, 01:02:04,VALID,918.533,VALID,0,VALID,97.29,VALID,0,VALID,19.1763,VALID,84,VALID,0,
2013-10-25, 01:03:04,VALID,918.54,VALID,0,VALID,97.3053,VALID,0,VALID,19.1763,VALID,84,VALID,0,
2013-10-25, 01:04:04,VALID,918.519,VALID,0,VALID,97.2824,VALID,0,VALID,19.1763,VALID,84,VALID,0,
2013-10-25, 01:05:04,VALID,918.512,VALID,0,VALID,97.29,VALID,0,VALID,19.1973,VALID,84,VALID,0,
2013-10-25, 01:06:04,VALID,918.519,VALID,0,VALID,97.2977,VALID,0,VALID,19.1973,VALID,84,VALID,0,
2013-10-25, 01:07:04,VALID,918.52,VALID,0,VALID,97.2824,VALID,0,VALID,19.1778,VALID,84,VALID,0,
2013-10-25, 01:08:04,VALID,918.531,VALID,0,VALID,97.29,VALID,0,VALID,19.1778,VALID,84,VALID,0,
2013-10-25, 01:09:04,VALID,918.533,VALID,0,VALID,97.2977,VALID,0,VALID,19.1583,VALID,84,VALID,0,
2013-10-25, 01:10:04,VALID,918.552,VALID,0,VALID,97.3053,VALID,0,VALID,19.1388,VALID,84,VALID,0,
2013-10-25, 01:11:04,VALID,918.518,VALID,0,VALID,97.3053,VALID,0,VALID,19.1388,VALID,83,VALID,0,
2013-10-25, 01:12:04,VALID,918.535,VALID,0,VALID,97.2977,VALID,0,VALID,19.1388,VALID,84,VALID,0,
2013-10-25, 01:13:04,VALID,918.533,VALID,0,VALID,97.2977,VALID,0,VALID,19.1388,VALID,84,VALID,0,
2013-10-25, 01:14:04,VALID,918.533,VALID,0,VALID,97.2977,VALID,0,VALID,19.1193,VALID,84,VALID,0,
2013-10-25, 01:15:04,VALID,918.532,VALID,0,VALID,97.2977,VALID,0,VALID,19.1388,VALID,84,VALID,0,
2013-10-25, 01:16:04,VALID,918.536,VALID,0,VALID,97.2977,VALID,0,VALID,19.1193,VALID,84,VALID,0,
2013-10-25, 01:17:04,VALID,918.543,VALID,0,VALID,97.3053,VALID,0,VALID,19.1193,VALID,84,VALID,0,
2013-10-25, 01:18:04,VALID,918.556,VALID,0,VALID,97.2977,VALID,0,VALID,19.1388,VALID,84,VALID,0,
2013-10-25, 01:19:04,VALID,918.554,VALID,0,VALID,97.3129,VALID,0,VALID,19.1778,VALID,84,VALID,0,
2013-10-25, 01:20:04,VALID,918.564,VALID,0,VALID,97.3281,VALID,0,VALID,19.1778,VALID,84,VALID,0,
2013-10-25, 01:21:04,VALID,918.562,VALID,0,VALID,97.3053,VALID,0,VALID,19.1778,VALID,84,VALID,0,
2013-10-25, 01:22:04,VALID,918.548,VALID,0,VALID,97.3053,VALID,0,VALID,19.1973,VALID,84,VALID,0,
2013-10-25, 01:23:04,VALID,918.533,VALID,0,VALID,97.3129,VALID,0,VALID,19.1778,VALID,84,VALID,0,
2013-10-25, 01:24:04,VALID,918.536,VALID,0,VALID,97.3358,VALID,0,VALID,19.1583,VALID,85,VALID,0,
2013-10-25, 01:25:04,VALID,918.516,VALID,0,VALID,97.3129,VALID,0,VALID,19.1583,VALID,84,VALID,0,
2013-10-25, 01:26:04,VALID,918.512,VALID,0,VALID,97.3053,VALID,0,VALID,19.1583,VALID,84,VALID,0,
2013-10-25, 01:27:04,VALID,918.501,VALID,0,VALID,97.2977,VALID,0,VALID,19.1778,VALID,84,VALID,0,
2013-10-25, 01:28:04,VALID,918.493,VALID,0,VALID,97.3129,VALID,0,VALID,19.1973,VALID,84,VALID,0,
2013-10-25, 01:29:04,VALID,918.489,VALID,0,VALID,97.3129,VALID,0,VALID,19.2363,VALID,84,VALID,0,
2013-10-25, 01:30:04,VALID,918.484,VALID,0,VALID,97.29,VALID,0,VALID,19.2168,VALID,84,VALID,0,
2013-10-25, 01:31:04,VALID,918.498,VALID,0,VALID,97.3205,VALID,0,VALID,19.2168,VALID,84,VALID,0,
2013-10-25, 01:32:04,VALID,918.52,VALID,0,VALID,97.3205,VALID,0,VALID,19.1958,VALID,84,VALID,0,
2013-10-25, 01:33:04,VALID,918.531,VALID,0,VALID,97.3129,VALID,0,VALID,19.2168,VALID,84,VALID,0,
2013-10-25, 01:34:04,VALID,918.545,VALID,0,VALID,97.3129,VALID,0,VALID,19.2168,VALID,184,VALID,0,
2013-10-25, 01:35:04,VALID,918.54,VALID,0,VALID,97.2977,VALID,0,VALID,19.1763,VALID,184,VALID,0,
2013-10-25, 01:36:04,VALID,918.491,VALID,0,VALID,97.2977,VALID,0,VALID,19.1973,VALID,184,VALID,0,
2013-10-25, 01:37:04,VALID,918.485,VALID,0,VALID,97.2977,VALID,0,VALID,19.1973,VALID,184,VALID,0,
2013-10-25, 01:38:04,VALID,918.509,VALID,0,VALID,97.3205,VALID,0,VALID,19.1973,VALID,184,VALID,0,
2013-10-25, 01:39:04,VALID,918.438,VALID,0,VALID,97.3281,VALID,0,VALID,19.2168,VALID,184,VALID,0,
2013-10-25, 01:40:04,VALID,918.441,VALID,0,VALID,97.3281,VALID,0,VALID,19.1778,VALID,184,VALID,0,
2013-10-25, 01:41:04,VALID,918.444,VALID,0,VALID,97.3281,VALID,0,VALID,19.1973,VALID,184,VALID,0,
2013-10-25, 01:42:04,VALID,918.457,VALID,0,VALID,97.3205,VALID,0,VALID,19.1973,VALID,184,VALID,0,
2013-10-25, 01:43:04,VALID,918.433,VALID,0,VALID,97.3281,VALID,0,VALID,19.1778,VALID,184,VALID,0,
2013-10-25, 01:44:04,VALID,918.403,VALID,0,VALID,97.3129,VALID,0,VALID,19.1583,VALID,184,VALID,0,
2013-10-25, 01:45:04,VALID,918.4,VALID,0,VALID,97.3434,VALID,0,VALID,19.1583,VALID,184,VALID,0,
2013-10-25, 01:46:04,VALID,918.409,VALID,0,VALID,97.3053,VALID,0,VALID,19.1778,VALID,184,VALID,0,
2013-10-25, 01:47:04,VALID,918.395,VALID,0,VALID,97.3205,VALID,0,VALID,19.1583,VALID,184,VALID,0,
2013-10-25, 01:48:04,VALID,918.397,VALID,0,VALID,97.3205,VALID,0,VALID,19.1388,VALID,184,VALID,0,
2013-10-25, 01:49:04,VALID,918.38,VALID,0,VALID,97.3358,VALID,0,VALID,19.0593,VALID,184,VALID,0,
2013-10-25, 01:50:04,VALID,918.385,VALID,0,VALID,97.3434,VALID,0,VALID,19.0218,VALID,184,VALID,0,
2013-10-25, 01:51:04,VALID,918.401,VALID,0,VALID,97.351,VALID,0,VALID,19.0218,VALID,184,VALID,0,
2013-10-25, 01:52:04,VALID,918.402,VALID,0,VALID,97.3434,VALID,0,VALID,19.0023,VALID,184,VALID,0,
2013-10-25, 01:53:04,VALID,918.405,VALID,0,VALID,97.3434,VALID,0,VALID,19.0218,VALID,184,VALID,0,
2013-10-25, 01:54:04,VALID,918.404,VALID,0,VALID,97.351,VALID,0,VALID,19.0427,VALID,184,VALID,0,
2013-10-25, 01:55:04,VALID,918.382,VALID,0,VALID,97.3358,VALID,0,VALID,19.0413,VALID,184,VALID,0,
2013-10-25, 01:56:04,VALID,918.409,VALID,0,VALID,97.3434,VALID,0,VALID,19.0413,VALID,184,VALID,0,
2013-10-25, 01:57:04,VALID,918.42,VALID,0,VALID,97.3434,VALID,0,VALID,19.0803,VALID,184,VALID,0,
2013-10-25, 01:58:04,VALID,918.388,VALID,0,VALID,97.3434,VALID,0,VALID,19.1012,VALID,184,VALID,0,
2013-10-25, 01:59:04,VALID,918.378,VALID,0,VALID,97.351,VALID,0,VALID,19.0803,VALID,184,VALID,0,
2013-10-25, 02:00:04,VALID,918.375,VALID,0,VALID,97.3205,VALID,0,VALID,19.1193,VALID,184,VALID,0,
2013-10-25, 02:01:04,VALID,918.345,VALID,0,VALID,97.3358,VALID,0,VALID,19.1388,VALID,184,VALID,0,
2013-10-25, 02:02:04,VALID,918.347,VALID,0,VALID,97.3586,VALID,0,VALID,19.1193,VALID,184,VALID,0,
2013-10-25, 02:03:04,VALID,918.319,VALID,0,VALID,97.3358,VALID,0,VALID,19.0803,VALID,184,VALID,0,
2013-10-25, 02:04:04,VALID,918.323,VALID,0,VALID,97.3434,VALID,0,VALID,19.0803,VALID,184,VALID,0,
2013-10-25, 02:05:04,VALID,918.288,VALID,0,VALID,97.351,VALID,0,VALID,19.0398,VALID,184,VALID,0,
2013-10-25, 02:06:04,VALID,918.26,VALID,0,VALID,97.351,VALID,0,VALID,19.0788,VALID,168,VALID,0,
2013-10-25, 02:07:04,VALID,918.23,VALID,0,VALID,97.351,VALID,0,VALID,19.0593,VALID,168,VALID,0,
2013-10-25, 02:08:04,VALID,918.232,VALID,0,VALID,97.3434,VALID,0,VALID,19.0803,VALID,168,VALID,0,
2013-10-25, 02:09:04,VALID,918.229,VALID,0,VALID,97.3358,VALID,0,VALID,19.0998,VALID,168,VALID,0,
2013-10-25, 02:10:04,VALID,918.229,VALID,0,VALID,97.3281,VALID,0,VALID,19.1193,VALID,168,VALID,0,
2013-10-25, 02:11:04,VALID,918.21,VALID,0,VALID,97.3434,VALID,0,VALID,19.1388,VALID,168,VALID,0,
2013-10-25, 02:12:04,VALID,918.227,VALID,0,VALID,97.351,VALID,0,VALID,19.1583,VALID,168,VALID,0,
2013-10-25, 02:13:04,VALID,918.233,VALID,0,VALID,97.3358,VALID,0,VALID,19.1778,VALID,168,VALID,0,
2013-10-25, 02:14:04,VALID,918.22,VALID,0,VALID,97.351,VALID,0,VALID,19.1778,VALID,168,VALID,0,
2013-10-25, 02:15:04,VALID,918.198,VALID,0,VALID,97.3434,VALID,0,VALID,19.1193,VALID,168,VALID,0,
2013-10-25, 02:16:04,VALID,918.171,VALID,0,VALID,97.3281,VALID,0,VALID,19.1583,VALID,168,VALID,0,
2013-10-25, 02:17:04,VALID,918.15,VALID,0,VALID,97.3205,VALID,0,VALID,19.1973,VALID,168,VALID,0,
2013-10-25, 02:18:04,VALID,918.13,VALID,0,VALID,97.351,VALID,0,VALID,19.1583,VALID,168,VALID,0,
2013-10-25, 02:19:04,VALID,918.093,VALID,0,VALID,97.3663,VALID,0,VALID,19.1388,VALID,168,VALID,0,
2013-10-25, 02:20:04,VALID,918.092,VALID,0,VALID,97.3434,VALID,0,VALID,19.1193,VALID,168,VALID,0,
2013-10-25, 02:21:04,VALID,918.085,VALID,0,VALID,97.3663,VALID,0,VALID,19.0998,VALID,168,VALID,0,
2013-10-25, 02:22:04,VALID,918.04,VALID,0,VALID,97.3434,VALID,0,VALID,19.1193,VALID,45,VALID,0,
2013-10-25, 02:23:04,VALID,918.041,VALID,0,VALID,97.351,VALID,0,VALID,19.0203,VALID,45,VALID,0,
2013-10-25, 02:24:04,VALID,918.04,VALID,0,VALID,97.3739,VALID,0,VALID,19.0023,VALID,45,VALID,0,
2013-10-25, 02:25:04,VALID,918.052,VALID,0,VALID,97.3739,VALID,0,VALID,18.9828,VALID,62,VALID,0,
2013-10-25, 02:26:04,VALID,918.062,VALID,0,VALID,97.3663,VALID,0,VALID,18.9828,VALID,62,VALID,0,
2013-10-25, 02:27:04,VALID,918.062,VALID,0,VALID,97.351,VALID,0,VALID,19.0023,VALID,132,VALID,0,
2013-10-25, 02:28:04,VALID,918.028,VALID,0,VALID,97.3434,VALID,0,VALID,19.0398,VALID,132,VALID,0,
2013-10-25, 02:29:04,VALID,918.043,VALID,0,VALID,97.3586,VALID,0,VALID,19.0803,VALID,132,VALID,0,
2013-10-25, 02:30:04,VALID,918.01,VALID,0,VALID,97.351,VALID,0,VALID,19.1568,VALID,132,VALID,0,
2013-10-25, 02:31:04,VALID,917.97,VALID,0,VALID,97.351,VALID,0,VALID,19.1778,VALID,132,VALID,0,
2013-10-25, 02:32:04,VALID,917.951,VALID,0,VALID,97.3205,VALID,0,VALID,19.1973,VALID,128,VALID,0,
2013-10-25, 02:33:04,VALID,917.935,VALID,0,VALID,97.3434,VALID,0,VALID,19.1388,VALID,76,VALID,0,
2013-10-25, 02:34:04,VALID,917.912,VALID,0,VALID,97.3434,VALID,0,VALID,19.1193,VALID,76,VALID,0,
2013-10-25, 02:35:04,VALID,917.936,VALID,0,VALID,97.351,VALID,0,VALID,19.0803,VALID,76,VALID,0,
2013-10-25, 02:36:04,VALID,917.918,VALID,0,VALID,97.351,VALID,0,VALID,19.0998,VALID,80,VALID,0,
2013-10-25, 02:37:04,VALID,917.909,VALID,0,VALID,97.3739,VALID,0,VALID,19.0608,VALID,88,VALID,0,
2013-10-25, 02:38:04,VALID,917.859,VALID,0,VALID,97.3663,VALID,0,VALID,19.0788,VALID,90,VALID,0,
2013-10-25, 02:39:04,VALID,917.844,VALID,0,VALID,97.3586,VALID,0,VALID,19.0608,VALID,89,VALID,0,
2013-10-25, 02:40:04,VALID,917.825,VALID,0,VALID,97.3663,VALID,0,VALID,19.0413,VALID,90,VALID,0,
2013-10-25, 02:41:04,VALID,917.788,VALID,0,VALID,97.3663,VALID,0,VALID,19.0218,VALID,90,VALID,0,
2013-10-25, 02:42:04,VALID,917.763,VALID,0,VALID,97.3739,VALID,0,VALID,18.9814,VALID,89,VALID,0,
2013-10-25, 02:43:04,VALID,917.743,VALID,0,VALID,97.3815,VALID,0,VALID,19.0023,VALID,89,VALID,0,
2013-10-25, 02:44:04,VALID,917.746,VALID,0,VALID,97.3663,VALID,0,VALID,19.0023,VALID,89,VALID,0,
2013-10-25, 02:45:04,VALID,917.755,VALID,0,VALID,97.3815,VALID,0,VALID,18.9814,VALID,90,VALID,0,
2013-10-25, 02:46:04,VALID,917.739,VALID,0,VALID,97.3663,VALID,0,VALID,19.0023,VALID,89,VALID,0,
2013-10-25, 02:47:04,VALID,917.76,VALID,0,VALID,97.3663,VALID,0,VALID,19.0218,VALID,90,VALID,0,
2013-10-25, 02:48:04,VALID,917.743,VALID,0,VALID,97.3815,VALID,0,VALID,19.0218,VALID,90,VALID,0,
2013-10-25, 02:49:04,VALID,917.732,VALID,0,VALID,97.3739,VALID,0,VALID,19.0413,VALID,90,VALID,0,
2013-10-25, 02:50:04,VALID,917.707,VALID,0,VALID,97.3586,VALID,0,VALID,19.0608,VALID,90,VALID,0,
2013-10-25, 02:51:04,VALID,917.711,VALID,0,VALID,97.351,VALID,0,VALID,19.0803,VALID,90,VALID,0,
2013-10-25, 02:52:04,VALID,917.678,VALID,0,VALID,97.3739,VALID,0,VALID,19.0608,VALID,90,VALID,0,
2013-10-25, 02:53:04,VALID,917.644,VALID,0,VALID,97.3663,VALID,0,VALID,19.0413,VALID,90,VALID,0,
2013-10-25, 02:54:04,VALID,917.629,VALID,0,VALID,97.3891,VALID,0,VALID,18.9828,VALID,90,VALID,0,
2013-10-25, 02:55:04,VALID,917.595,VALID,0,VALID,97.3815,VALID,0,VALID,18.9619,VALID,90,VALID,0,
2013-10-25, 02:56:04,VALID,917.633,VALID,0,VALID,97.3968,VALID,0,VALID,18.9828,VALID,90,VALID,0,
2013-10-25, 02:57:04,VALID,917.595,VALID,0,VALID,97.3815,VALID,0,VALID,18.9633,VALID,90,VALID,0,
2013-10-25, 02:58:04,VALID,917.596,VALID,0,VALID,97.3815,VALID,0,VALID,18.9828,VALID,90,VALID,0,
2013-10-25, 02:59:04,VALID,917.585,VALID,0,VALID,97.3968,VALID,0,VALID,19.0023,VALID,90,VALID,0,
2013-10-25, 03:00:04,VALID,917.585,VALID,0,VALID,97.3586,VALID,0,VALID,19.0218,VALID,90,VALID,0,
2013-10-25, 03:01:04,VALID,917.582,VALID,0,VALID,97.3663,VALID,0,VALID,19.0608,VALID,90,VALID,0,
2013-10-25, 03:02:04,VALID,917.557,VALID,0,VALID,97.351,VALID,0,VALID,19.0608,VALID,90,VALID,0,
2013-10-25, 03:03:04,VALID,917.531,VALID,0,VALID,97.3815,VALID,0,VALID,19.0998,VALID,88,VALID,0,
2013-10-25, 03:04:04,VALID,917.494,VALID,0,VALID,97.3434,VALID,0,VALID,19.1178,VALID,46,VALID,0,
2013-10-25, 03:05:04,VALID,917.485,VALID,0,VALID,97.3586,VALID,0,VALID,19.1388,VALID,46,VALID,0,
2013-10-25, 03:06:04,VALID,917.466,VALID,0,VALID,97.3739,VALID,0,VALID,19.1373,VALID,46,VALID,0,
2013-10-25, 03:07:04,VALID,917.46,VALID,0,VALID,97.3586,VALID,0,VALID,19.1193,VALID,46,VALID,0,
2013-10-25, 03:08:04,VALID,917.441,VALID,0,VALID,97.3739,VALID,0,VALID,19.0413,VALID,99,VALID,0,
2013-10-25, 03:09:04,VALID,917.447,VALID,0,VALID,97.3663,VALID,0,VALID,19.0218,VALID,131,VALID,0,
2013-10-25, 03:10:04,VALID,917.463,VALID,0,VALID,97.3815,VALID,0,VALID,19.0023,VALID,131,VALID,0,
2013-10-25, 03:11:04,VALID,917.441,VALID,0,VALID,97.3891,VALID,0,VALID,19.0008,VALID,131,VALID,0,
2013-10-25, 03:12:04,VALID,917.419,VALID,0,VALID,97.3663,VALID,0,VALID,19.0413,VALID,131,VALID,0,
2013-10-25, 03:13:04,VALID,917.374,VALID,0,VALID,97.3663,VALID,0,VALID,19.0398,VALID,131,VALID,0,
2013-10-25, 03:14:04,VALID,917.407,VALID,0,VALID,97.351,VALID,0,VALID,19.0218,VALID,131,VALID,0,
2013-10-25, 03:15:04,VALID,917.408,VALID,0,VALID,97.3815,VALID,0,VALID,19.0232,VALID,131,VALID,0,
2013-10-25, 03:16:04,VALID,917.392,VALID,0,VALID,97.3663,VALID,0,VALID,18.9828,VALID,118,VALID,0,
2013-10-25, 03:17:04,VALID,917.347,VALID,0,VALID,97.3739,VALID,0,VALID,18.9828,VALID,118,VALID,0,
2013-10-25, 03:18:04,VALID,917.366,VALID,0,VALID,97.3815,VALID,0,VALID,18.9814,VALID,118,VALID,0,
2013-10-25, 03:19:04,VALID,917.37,VALID,0,VALID,97.3663,VALID,0,VALID,19.0023,VALID,118,VALID,0,
2013-10-25, 03:20:04,VALID,917.376,VALID,0,VALID,97.3739,VALID,0,VALID,18.9828,VALID,118,VALID,0,
2013-10-25, 03:21:04,VALID,917.363,VALID,0,VALID,97.3663,VALID,0,VALID,19.0023,VALID,123,VALID,0,
2013-10-25, 03:22:04,VALID,917.388,VALID,0,VALID,97.3815,VALID,0,VALID,19.0218,VALID,201,VALID,0,
2013-10-25, 03:23:04,VALID,917.392,VALID,0,VALID,97.3815,VALID,0,VALID,19.0413,VALID,201,VALID,0,
2013-10-25, 03:24:04,VALID,917.399,VALID,0,VALID,97.3739,VALID,0,VALID,19.0218,VALID,201,VALID,0,
2013-10-25, 03:25:04,VALID,917.399,VALID,0,VALID,97.3586,VALID,0,VALID,19.0023,VALID,201,VALID,0,
2013-10-25, 03:26:04,VALID,917.412,VALID,0,VALID,97.3739,VALID,0,VALID,19.0218,VALID,201,VALID,0,
2013-10-25, 03:27:04,VALID,917.42,VALID,0,VALID,97.3434,VALID,0,VALID,19.0218,VALID,201,VALID,0,
2013-10-25, 03:28:04,VALID,917.428,VALID,0,VALID,97.3586,VALID,0,VALID,19.0008,VALID,201,VALID,0,
2013-10-25, 03:29:04,VALID,917.42,VALID,0,VALID,97.3739,VALID,0,VALID,19.0413,VALID,201,VALID,0,
2013-10-25, 03:30:04,VALID,917.396,VALID,0,VALID,97.3739,VALID,0,VALID,19.0398,VALID,201,VALID,0,
2013-10-25, 03:31:04,VALID,917.416,VALID,0,VALID,97.3663,VALID,0,VALID,19.0413,VALID,201,VALID,0,
2013-10-25, 03:32:04,VALID,917.461,VALID,0,VALID,97.3586,VALID,0,VALID,19.0413,VALID,201,VALID,0,
2013-10-25, 03:33:05,VALID,917.486,VALID,0,VALID,97.3586,VALID,0,VALID,19.0218,VALID,201,VALID,0,
2013-10-25, 03:34:05,VALID,917.491,VALID,0,VALID,97.3739,VALID,0,VALID,19.0203,VALID,201,VALID,0,
2013-10-25, 03:35:05,VALID,917.5,VALID,0,VALID,97.3586,VALID,0,VALID,19.0413,VALID,201,VALID,0,
2013-10-25, 03:36:05,VALID,917.483,VALID,0,VALID,97.351,VALID,0,VALID,19.0413,VALID,201,VALID,0,
2013-10-25, 03:37:05,VALID,917.484,VALID,0,VALID,97.351,VALID,0,VALID,19.0413,VALID,201,VALID,0,
2013-10-25, 03:38:05,VALID,917.5,VALID,0,VALID,97.3663,VALID,0,VALID,19.0218,VALID,201,VALID,0,
2013-10-25, 03:39:05,VALID,917.51,VALID,0,VALID,97.351,VALID,0,VALID,19.0218,VALID,201,VALID,0,
2013-10-25, 03:40:05,VALID,917.495,VALID,0,VALID,97.3663,VALID,0,VALID,19.0023,VALID,201,VALID,0,
2013-10-25, 03:41:05,VALID,917.505,VALID,0,VALID,97.351,VALID,0,VALID,19.0218,VALID,201,VALID,0,
2013-10-25, 03:42:05,VALID,917.505,VALID,0,VALID,97.3663,VALID,0,VALID,19.0218,VALID,201,VALID,0,
2013-10-25, 03:43:05,VALID,917.514,VALID,0,VALID,97.3663,VALID,0,VALID,19.0413,VALID,201,VALID,0,
2013-10-25, 03:44:05,VALID,917.529,VALID,0,VALID,97.3739,VALID,0,VALID,19.0413,VALID,201,VALID,0,
2013-10-25, 03:45:05,VALID,917.516,VALID,0,VALID,97.3663,VALID,0,VALID,19.0413,VALID,201,VALID,0,
2013-10-25, 03:46:05,VALID,917.498,VALID,0,VALID,97.3815,VALID,0,VALID,19.0608,VALID,201,VALID,0,
2013-10-25, 03:47:05,VALID,917.506,VALID,0,VALID,97.3586,VALID,0,VALID,19.0413,VALID,201,VALID,0,
2013-10-25, 03:48:05,VALID,917.491,VALID,0,VALID,97.3586,VALID,0,VALID,19.0413,VALID,201,VALID,0,
2013-10-25, 03:49:05,VALID,917.494,VALID,0,VALID,97.3739,VALID,0,VALID,19.0023,VALID,201,VALID,0,
2013-10-25, 03:50:05,VALID,917.533,VALID,0,VALID,97.3663,VALID,0,VALID,19.0023,VALID,201,VALID,0,
2013-10-25, 03:51:05,VALID,917.538,VALID,0,VALID,97.3891,VALID,0,VALID,19.0023,VALID,201,VALID,0,
2013-10-25, 03:52:05,VALID,917.575,VALID,0,VALID,97.3586,VALID,0,VALID,19.0427,VALID,201,VALID,0,
2013-10-25, 03:53:05,VALID,917.569,VALID,0,VALID,97.3739,VALID,0,VALID,19.0218,VALID,201,VALID,0,
2013-10-25, 03:54:05,VALID,917.565,VALID,0,VALID,97.3739,VALID,0,VALID,19.0218,VALID,201,VALID,0,
2013-10-25, 03:55:05,VALID,917.54,VALID,0,VALID,97.3739,VALID,0,VALID,19.0023,VALID,201,VALID,0,
2013-10-25, 03:56:05,VALID,917.539,VALID,0,VALID,97.3586,VALID,0,VALID,19.0218,VALID,201,VALID,0,
2013-10-25, 03:57:05,VALID,917.554,VALID,0,VALID,97.3968,VALID,0,VALID,19.0218,VALID,201,VALID,0,
2013-10-25, 03:58:05,VALID,917.546,VALID,0,VALID,97.3663,VALID,0,VALID,19.0023,VALID,201,VALID,0,
2013-10-25, 03:59:05,VALID,917.548,VALID,0,VALID,97.3663,VALID,0,VALID,19.0232,VALID,201,VALID,0,
2013-10-25, 04:00:05,VALID,917.532,VALID,0,VALID,97.3586,VALID,0,VALID,19.0023,VALID,201,VALID,0,